COSMOS 252 DEB, 18490

Orbit data source: Space-Track

COSMOS 252 DEB, 18490 is space debris in LEO originally from a launch on Fri, 01 Nov 1968 UTC launched from the Tyuratam Missile And Space Complex (TTMTR). Debris objects in space refer to the collection of defunct objects orbiting the Earth. Examples of debris include non-operational satellites, rocket bodies, and fragments generated from explosions, collisions, or faulty payload assembly.

Loading next visibility...
Identifier
18490, 1968-097EN
Orbit
LEO
Country
Flag of CISCIS
Related business
Manufacturer
Unknown
Mission
Spacecraft
Bus & Motor
Unknown
Mass
Unknown
Launch date (UTC)
1968-11-01 (58 years ago)
Launch vehicle
Unknown
Launch site
Tyuratam Missile And Space Complex (TTMTR)
Object type
Payload
Rocket body
Debris
Shape & HBR
Unknown shape, 0.1 m
Radar Cross Section
Medium (>0.1 m² and <1 m²)

Expand to show TLE details & history
Last TLE update: 14 hours ago

TLE from 14 hours ago
0 COSMOS 252 DEB
1 18490U 68097EN  26175.00952814  .00007219  00000-0  11326-2 0  9996
2 18490  62.7381 139.6412 0418734 351.0581   8.3177 14.28336595713392
Epoch: 2026-06-24T00:13Z
TLE epoch observation values (Epoch: 2026-06-24T00:13:43.231Z)
Latitude
-0.00009°
Longitude
-135.96187°
Altitude
502.037 km
Speed
7.77 km/s
True Right ascension
09h 18m 33s
True Declination
0° 00' 00"
Sunlit
Object was in daylight at epoch
Visualization orbit readout
Latitude
Unknown
Longitude
Unknown
Altitude
Unknown
Speed
Unknown
Apparent Right ascension
Unknown
Apparent Declination
Unknown
Sunlit
N/A
Visualization observer readout
Local Sidereal Time
01:45:48
Azimuth
Unknown
Elevation
Unknown
Doppler factor
Unknown
Orbital elements
Apogee altitude
1,096.573 km
Perigee altitude
495.748 km
Semi-major axis
7,174.298 km
Eccentricity
0.04187
Inclination
62.7381°
RAAN
139.6412°
Arg. of periapsis
351.0581°
True anomaly
9.04964°
Mean anomaly
8.3177°
Eccentric anomaly
8.67976°
Mean motion
3.57169 °/min
Orbital period
100.79 mins
BSTAR
0.0011326
Loading maneuver chart data...
Computing Atmospheric mass density...

Documentation

Showing up to 5 results
|